Weather History for MMLP - March, 2014

Change the Weather History Date:

Friday, March 14, 2014

  Actual Average Record
Temperature  
Mean Temperature 74 °F -  
Max Temperature 90 °F 83 °F 95 °F (2008)
Min Temperature 58 °F 55 °F 46 °F (1999)
Cooling Degree Days 9    
Growing Degree Days 24 (Base 50)    
Moisture  
Dew Point 48 °F    
Average Humidity 45    
Maximum Humidity 88    
Minimum Humidity 12    
Precipitation  
Precipitation 0.00 in - - ()
Sea Level Pressure  
Sea Level Pressure 29.99 in    
Wind  
Wind Speed 7 mph ()    
Max Wind Speed 16 mph    
Max Gust Speed -    
Visibility 9.9 miles    
Events      
Averages and records for this station are not official NWS values.
T = Trace of Precipitation, MM = Missing Value Source: Averaged Metar Reports

Daily Weather History Graph

Daily Weather History Graph

Search for Another Location

Airport or City:

Trip Planner

Search our weather history database for the weather conditions in past years. The results will help you decide how hot, cold, wet, or windy it might be!

Date:

Astronomy

Mar. 14, 2014 Rise Set
Actual Time 6:31 AM MST 6:30 PM MST
Civil Twilight 6:08 AM MST 6:52 PM MST
Nautical Twilight 5:42 AM MST 7:19 PM MST
Astronomical Twilight 5:16 AM MST 7:45 PM MST
Moon 5:02 PM MST (3/14) 5:04 AM MST (3/14)
Length of Visible Light 12h 44m
Length of Day
11h 58m
Waxing Gibbous, 96% of the Moon is Illuminated
Mar 14
Waxing Gibbous
Mar 16
Full
Mar 23
Last Quarter
Mar 30
New
Apr 7
First Quarter

Hourly Weather History & Observations

Time (MST) Temp. Dew Point Humidity Pressure Visibility Wind Dir Wind Speed Gust Speed Precip Events Conditions
1:45 AM 66 °F 58 °F 70% 29.93 in 2 mi SSE 6.7 mph - -   Partly Cloudy
4:50 AM 63 °F 58 °F 80% 29.95 in 2 mi SE 6.7 mph - -  
5:55 AM 59.0 °F 53.6 °F 82% 29.98 in 10.0 mi South 6.9 mph - N/A   Scattered Clouds
7:42 AM 59.0 °F 55.4 °F 88% 30.02 in 10.0 mi South 12.7 mph - N/A   Scattered Clouds
7:50 AM 64 °F 56 °F 70% 30.00 in 12 mi South 6.7 mph - -  
8:45 AM 64.4 °F 51.8 °F 64% 30.03 in 10.0 mi South 9.2 mph - N/A   Scattered Clouds
9:44 AM 71.6 °F 46.4 °F 41% 30.04 in 10.0 mi South 9.2 mph - N/A   Scattered Clouds
10:46 AM 75.2 °F 41.0 °F 29% 30.04 in 10.0 mi SSW 11.5 mph - N/A   Scattered Clouds
10:50 AM 78 °F 49 °F 26% 30.02 in 19 mi South 6.7 mph - -   Scattered Clouds
11:45 AM 82.4 °F 33.8 °F 17% 30.02 in 10.0 mi SW 9.2 mph - N/A   Partly Cloudy
12:40 PM 84.2 °F 32.0 °F 15% 30.00 in 10.0 mi WSW 5.8 mph - N/A   Partly Cloudy
1:40 PM 86.0 °F 32.0 °F 14% 29.98 in 10.0 mi WSW 16.1 mph - N/A   Partly Cloudy
1:50 PM 91 °F 44 °F 12% 29.97 in 19 mi SW 6.7 mph - -   Scattered Clouds
2:40 PM 86.0 °F 35.6 °F 17% 29.95 in 10.0 mi West 6.9 mph - N/A   Partly Cloudy
3:40 PM 84.2 °F 37.4 °F 19% 29.94 in 10.0 mi South 8.1 mph - N/A   Partly Cloudy
4:45 PM 84.2 °F 37.4 °F 19% 29.94 in 10.0 mi South 9.2 mph - N/A   Scattered Clouds
4:50 PM 88 °F 48 °F 16% 29.94 in 19 mi NW 6.7 mph - -   Scattered Clouds
5:58 PM 80.6 °F 42.8 °F 26% 29.95 in 10.0 mi SSW 11.5 mph - N/A   Scattered Clouds
6:40 PM 77.0 °F 51.8 °F 41% 29.96 in 10.0 mi SW 9.2 mph - N/A   Scattered Clouds
7:45 PM 74 °F 59 °F 50% 29.96 in 2 mi South 6.7 mph - -   Clear
7:50 PM 71.6 °F 55.4 °F 57% 30.00 in 10.0 mi South 9.2 mph - N/A   Scattered Clouds
8:40 PM 68.0 °F 55.4 °F 64% 30.01 in 10.0 mi South 9.2 mph - N/A   Scattered Clouds
9:57 PM 66.2 °F 57.2 °F 73% 30.02 in 10.0 mi South 11.5 mph - N/A   Scattered Clouds
10:41 PM 64.4 °F 57.2 °F 77% 30.03 in 10.0 mi South 6.9 mph - N/A   Scattered Clouds
10:45 PM 67 °F 59 °F 70% 29.99 in 2 mi South 6.7 mph - -   Partly Cloudy